Regional Weather Roundup
Issued by NWS

Home | Current Version | Previous Version | Graphics & Text | Print | Product List | Glossary On
Versions: 1 2 3 4 5 6 7 8 9 10 11 12 13 14 15 16 17 18 19 20 21 22 23 24 25 26 27 28 29 30 31 32 33 34 35 36 37 38 39 40 41 42 43 44 45 46 47 48 49 50
000
ASUS43 KMKX 251221
RWRWI

WISCONSIN REGIONAL WEATHER ROUNDUP
NATIONAL WEATHER SERVICE MILWAUKEE/SULLIVAN WI
700 AM CDT THU AUG 25 2016

NOTE: "FAIR" INDICATES FEW OR NO CLOUDS BELOW 12,000 FEET WITH NO
SIGNIFICANT WEATHER AND/OR OBSTRUCTIONS TO VISIBILITY.

WIZ001-002-006>008-014>016-023>028-251300-
NORTHWEST WISCONSIN

CITY           SKY/WX    TMP DP  RH WIND       PRES   REMARKS
SUPERIOR ARPT  CLEAR     55  55  97 SW6       29.95S
6HR MIN TEMP:  54; 6HR MAX TEMP:  58;

ASHLAND        CLEAR     56  54  93 S6        29.96S
6HR MIN TEMP:  54; 6HR MAX TEMP:  60;

HAYWARD        CLEAR     54  53  97 S5        30.00R
6HR MIN TEMP:  53; 6HR MAX TEMP:  59;

SIREN          CLEAR     59  57  93 SW6       30.00S
6HR MIN TEMP:  58; 6HR MAX TEMP:  62;

CUMBERLAND     CLEAR     54  54 100 SW5       30.02R
RICE LAKE      CLEAR     54  53  95 CALM      30.03S FOG
6HR MIN TEMP:  53; 6HR MAX TEMP:  61;

CHETEK         NOT AVBL
LADYSMITH      CLOUDY    56  55  95 CALM      30.03S
6HR MIN TEMP:  56; 6HR MAX TEMP:  62;

EAU CLAIRE     CLOUDY    61  59  93 SW5       30.02R
6HR MIN TEMP:  60; 6HR MAX TEMP:  64;

MENOMONIE      CLOUDY    63  59  86 SW3       30.02F
6HR MIN TEMP:  62; 6HR MAX TEMP:  65;

NEW RICHMOND   CLEAR     58  57  99 SW3       30.02S
6HR MIN TEMP:  57; 6HR MAX TEMP:  62;

OSCEOLA        CLEAR     56  56 100 CALM      30.04S
6HR MIN TEMP:  55; 6HR MAX TEMP:  61;

$$

WIZ003>005-009-010-017-018-251300-
NORTH CENTRAL WISCONSIN

CITY           SKY/WX    TMP DP  RH WIND       PRES   REMARKS
MANITOWISH WTR NOT AVBL
ARBOR VITAE    CLEAR     57  56  96 CALM      30.01S FOG
6HR MIN TEMP:  52; 6HR MAX TEMP:  63;

WOODRUFF       CLEAR     57  56  96 CALM      30.01S FOG
6HR MIN TEMP:  52; 6HR MAX TEMP:  63;

RHINELANDER    CLOUDY    55  55 100 W6        30.02R
6HR MIN TEMP:  55; 6HR MAX TEMP:  60;

EAGLE RIVER    PTCLDY    54  54 100 W3        30.00S FOG
6HR MIN TEMP:  53; 6HR MAX TEMP:  62;

LAND O LAKES   PTCLDY    52  52 100 CALM      30.01R
6HR MIN TEMP:  50; 6HR MAX TEMP:  61; 6HR PCP:  0.02;

PHILLIPS       CLEAR     57  56  95 SW5       30.01S
6HR MIN TEMP:  55; 6HR MAX TEMP:  60;

TOMAHAWK       MOCLDY    54  53  96 CALM      30.02S
6HR MIN TEMP:  54; 6HR MAX TEMP:  59;

MEDFORD        CLEAR     57  57 100 CALM      30.02S
6HR MIN TEMP:  57; 6HR MAX TEMP:  61;

MERRILL        CLOUDY    58  58 100 W6        30.02S
6HR MIN TEMP:  57; 6HR MAX TEMP:  63;

$$

WIZ029-030-035-036-043>047-251300-
CENTRAL WISCONSIN

CITY           SKY/WX    TMP DP  RH WIND       PRES   REMARKS
WAUSAU         CLOUDY    59  57  93 NW5       30.00R
6HR MIN TEMP:  59; 6HR MAX TEMP:  66;

MOSINEE        CLEAR     57  57 100 NW6       30.02S
MARSHFIELD     PTCLDY    60  56  86 W7        30.02S
6HR MIN TEMP:  58; 6HR MAX TEMP:  65;

STEVENS POINT  MOCLDY    59  57  92 CALM      30.02R
6HR MIN TEMP:  59; 6HR MAX TEMP:  66;

WAUPACA        MOCLDY    65  62  89 CALM      30.01R
6HR MIN TEMP:  65; 6HR MAX TEMP:  69; 6HR PCP:  0.01;

WAUTOMA        PTCLDY    63  60  90 CALM      30.02R
6HR MIN TEMP:  63; 6HR MAX TEMP:  67;

WISC RAPIDS    CLOUDY    61  59  93 CALM      30.03R
6HR MIN TEMP:  60; 6HR MAX TEMP:  66;

CAMP DOUGLAS   MOCLDY    57  57 100 W3        30.02S
$$

WIZ011>013-019>022-031-037>040-048>050-251300-
NORTHEAST WISCONSIN

CITY           SKY/WX    TMP DP  RH WIND       PRES   REMARKS
ANTIGO         PTCLDY    57  57  99 CALM      30.01S
6HR MIN TEMP:  55; 6HR MAX TEMP:  61;

SHAWANO        CLOUDY    64  59  85 W3        29.99R
6HR MIN TEMP:  64; 6HR MAX TEMP:  69;

OCONTO         NOT AVBL
STURGEON BAY   CLOUDY    66  61  84 NW6       29.97R
6HR MIN TEMP:  66; 6HR MAX TEMP:  71;

GREEN BAY      CLOUDY    64  63  96 W7        29.98R
6HR MIN TEMP:  63; 6HR MAX TEMP:  66;

MANITOWOC      CLOUDY    66  62  87 MISG      29.98R
6HR MIN TEMP:  66; 6HR MAX TEMP:  71;

APPLETON       PTCLDY    63  63 100 W8        29.99R
CLINTONVILLE   CLOUDY    63  59  88 CALM      30.00R
OSHKOSH        PTCLDY    64  60  87 W6        30.00R
6HR MIN TEMP:  64; 6HR MAX TEMP:  68;

$$

WIZ032>034-041-042-053>061-251300-
SOUTHWEST WISCONSIN

CITY           SKY/WX    TMP DP  RH WIND       PRES   REMARKS
LA CROSSE      CLOUDY    65  32  29 CALM      30.03R
6HR MIN TEMP:  63; 6HR MAX TEMP:  69;

SPARTA         CLOUDY    56  56 100 CALM      30.04S
6HR MIN TEMP:  55; 6HR MAX TEMP:  65;

VIROQUA        CLOUDY    61  61 100 CALM      30.05S
6HR MIN TEMP:  60; 6HR MAX TEMP:  65;

BOSCOBEL       PTCLDY    65  63  93 CALM      30.04R
6HR MIN TEMP:  64; 6HR MAX TEMP:  71;

PRAIRIE DU CHI MOCLDY    63  60  93 CALM      30.04S
6HR MIN TEMP:  63; 6HR MAX TEMP:  70;

PLATTEVILLE    CLOUDY    63  62  97 CALM      30.04S
6HR MIN TEMP:  63; 6HR MAX TEMP:  72;

$$

WIZ056-057-062-063-064-067-068-251300-
SOUTH CENTRAL WISCONSIN

CITY           SKY/WX    TMP DP  RH WIND       PRES   REMARKS
REEDSBURG      NOT AVBL
BARABOO/DELLS  CLOUDY    64  59  82 NW3       30.04R
6HR MIN TEMP:  64; 6HR MAX TEMP:  68;

LONE ROCK      CLOUDY    65  62  90 W5        30.04R
6HR MIN TEMP:  64; 6HR MAX TEMP:  71;

MINERAL POINT  CLEAR     63  61  94 CALM      30.05R
MADISON        MOCLDY    63  61  93 CALM      30.02R
6HR MIN TEMP:  62; 6HR MAX TEMP:  72;

MIDDLETON      CLEAR     63  63 100 CALM      30.03R
6HR MIN TEMP:  62; 6HR MAX TEMP:  72;

WATERTOWN      PTCLDY    66  64  93 NW5       30.01R
6HR MIN TEMP:  66; 6HR MAX TEMP:  73;

MONROE         CLOUDY    64  63  94 NW7       30.02S
JANESVILLE     CLOUDY    70  68  94 NW8       30.00R
$$

WIZ051-052-058>065-066-070>072-251300-
SOUTHEAST WISCONSIN

CITY           SKY/WX    TMP DP  RH WIND       PRES   REMARKS
MILWAUKEE      LGT RAIN  71  67  87 CALM      29.98R
6HR MIN TEMP:  70; 6HR MAX TEMP:  78; 6HR PCP:  0.33;

WAUKESHA       MOCLDY    66  64  94 W3        30.00R
MILWAUKEE/TIMM CLOUDY    68  64  88 W5        30.00R
RACINE         HVY RAIN  69  67  93 N12       29.98S FOG
6HR MIN TEMP:  70; 6HR MAX TEMP:  76; 6HR PCP:  1.30;

BURLINGTON     DRIZZLE   66  65  98 CALM      29.99S
6HR MIN TEMP:  66; 6HR MAX TEMP:  72; 6HR PCP:  1.05;

KENOSHA        LGT RAIN  69  68  96 NW8       29.99R
6HR MIN TEMP:  68; 6HR MAX TEMP:  76; 6HR PCP:  1.03;

FOND DU LAC    PTCLDY    64  61  90 NW7       30.00R
6HR MIN TEMP:  64; 6HR MAX TEMP:  69;

SHEBOYGAN      CLOUDY    68  63  84 NW8       29.98R
6HR MIN TEMP:  63; 6HR MAX TEMP:  69;

WEST BEND      PTCLDY    66  61  82 NW5       30.00R
JUNEAU         MOCLDY    64  61  91 CALM      30.02S
6HR MIN TEMP:  64; 6HR MAX TEMP:  70;

$$

LSZ147-162-251300-
LAKE SUPERIOR

STATION/POSITION TIME  TEMP    WIND        PRES    WAVE
                       AIR SEA DIR/SP/G            HT/PER
                 (UTC) (F)     (DEG/KT/KT) (MB)    (FT/S)
W MID LAKE BUOY  1150   67 68  250/ 16/ 17 1011.7R   3/ 4
DEVILS ISLAND    1200   65     230/ 15/ 18 1013.2R
PORT WING        1100   60     190/  6/  8 1013.9
SAXON HARBOR     1100   62     200/  7/ 11 1013.9R
$$

LMZ867-665-643>646-251300-
LAKE MICHIGAN

STATION/POSITION TIME  TEMP    WIND        PRES    WAVE
                       AIR SEA DIR/SP/G            HT/PER
                 (UTC) (F)     (DEG/KT/KT) (MB)    (FT/S)
CHAMBERS ISLAND  1100   66     270/  3/  9 1013.5R
N MID LAKE BUOY  1150   69 69  280/ 14/ 16 1012.3F   2/ 6
NORTHPORT PIER   1100   69     300/  8/ 11 1013.2R
SISTER BAY       1122   69     340/ 15C1F1C2F2C3F3C4F4C5F5C6F6C7F7C8M1C9M2Ca!



USA.gov is the U.S. government's official web portal to all federal, state and local government web resources and services.